TimeEDT,TemperatureF,Dew PointF,Humidity,Sea Level PressureIn,VisibilityMPH,Wind Direction,Wind SpeedMPH,Gust SpeedMPH,PrecipitationIn,Events,Conditions,WindDirDegrees,DateUTC
12:08 AM,41.0,32.0,70,29.90,10.0,North,3.5,-,N/A,,Clear,350,2013-10-23 04:08:00
12:28 AM,42.8,32.0,66,29.89,10.0,North,3.5,-,N/A,,Clear,360,2013-10-23 04:28:00
12:48 AM,41.0,32.0,70,29.89,10.0,Calm,Calm,-,N/A,,Clear,0,2013-10-23 04:48:00
1:08 AM,41.0,32.0,70,29.89,10.0,Calm,Calm,-,N/A,,Clear,0,2013-10-23 05:08:00
1:28 AM,37.4,33.8,87,29.89,10.0,Calm,Calm,-,N/A,,Clear,0,2013-10-23 05:28:00
1:48 AM,39.2,33.8,81,29.89,10.0,Calm,Calm,-,N/A,,Clear,0,2013-10-23 05:48:00
2:08 AM,37.4,33.8,87,29.88,10.0,Calm,Calm,-,N/A,,Clear,0,2013-10-23 06:08:00
2:28 AM,37.4,33.8,87,29.87,10.0,Calm,Calm,-,N/A,,Clear,0,2013-10-23 06:28:00
2:48 AM,37.4,33.8,87,29.87,10.0,Calm,Calm,-,N/A,,Clear,0,2013-10-23 06:48:00
3:08 AM,37.4,33.8,87,29.86,10.0,Calm,Calm,-,N/A,,Clear,0,2013-10-23 07:08:00
3:28 AM,37.4,33.8,87,29.85,10.0,Calm,Calm,-,N/A,,Clear,0,2013-10-23 07:28:00
3:48 AM,37.4,35.6,93,29.85,10.0,Calm,Calm,-,N/A,,Clear,0,2013-10-23 07:48:00
4:08 AM,37.4,35.6,93,29.84,10.0,Calm,Calm,-,N/A,,Clear,0,2013-10-23 08:08:00
4:28 AM,37.4,35.6,93,29.85,10.0,Calm,Calm,-,N/A,,Clear,0,2013-10-23 08:28:00
4:48 AM,37.4,35.6,93,29.84,10.0,Calm,Calm,-,N/A,,Scattered Clouds,0,2013-10-23 08:48:00
5:08 AM,37.4,35.6,93,29.84,10.0,Calm,Calm,-,N/A,,Scattered Clouds,0,2013-10-23 09:08:00
5:28 AM,37.4,35.6,93,29.83,10.0,Calm,Calm,-,N/A,,Clear,0,2013-10-23 09:28:00
5:48 AM,37.4,35.6,93,29.83,10.0,Calm,Calm,-,N/A,,Clear,0,2013-10-23 09:48:00
6:08 AM,37.4,35.6,93,29.83,10.0,Calm,Calm,-,N/A,,Scattered Clouds,0,2013-10-23 10:08:00
6:29 AM,37.4,35.6,93,29.82,10.0,Calm,Calm,-,N/A,,Scattered Clouds,0,2013-10-23 10:29:00
6:49 AM,37.4,35.6,93,29.82,10.0,Calm,Calm,-,N/A,,Mostly Cloudy,0,2013-10-23 10:49:00
7:09 AM,37.4,35.6,93,29.82,10.0,Calm,Calm,-,N/A,,Overcast,0,2013-10-23 11:09:00
7:29 AM,37.4,35.6,93,29.82,10.0,Calm,Calm,-,N/A,,Overcast,0,2013-10-23 11:29:00
7:49 AM,37.4,35.6,93,29.82,10.0,Calm,Calm,-,N/A,,Scattered Clouds,0,2013-10-23 11:49:00
8:09 AM,39.2,37.4,93,29.82,10.0,Calm,Calm,-,N/A,,Scattered Clouds,0,2013-10-23 12:09:00
8:29 AM,39.2,37.4,93,29.82,10.0,Calm,Calm,-,N/A,,Scattered Clouds,0,2013-10-23 12:29:00
8:49 AM,39.2,37.4,93,29.82,10.0,Calm,Calm,-,N/A,,Clear,0,2013-10-23 12:49:00
9:09 AM,41.0,37.4,87,29.82,10.0,North,3.5,-,N/A,,Mostly Cloudy,10,2013-10-23 13:09:00
9:29 AM,41.0,37.4,87,29.82,7.0,Calm,Calm,-,N/A,,Overcast,0,2013-10-23 13:29:00
9:49 AM,41.0,37.4,87,29.81,10.0,NNW,3.5,-,N/A,,Overcast,340,2013-10-23 13:49:00
10:09 AM,42.8,37.4,81,29.81,10.0,NW,3.5,-,N/A,,Overcast,320,2013-10-23 14:09:00
10:29 AM,42.8,37.4,81,29.81,10.0,Calm,Calm,-,N/A,,Overcast,0,2013-10-23 14:29:00
10:49 AM,42.8,37.4,81,29.81,10.0,WNW,5.8,-,N/A,,Overcast,300,2013-10-23 14:49:00
11:09 AM,42.8,37.4,81,29.81,10.0,NW,3.5,-,N/A,,Mostly Cloudy,310,2013-10-23 15:09:00
11:29 AM,42.8,37.4,81,29.82,7.0,Calm,Calm,-,N/A,,Overcast,0,2013-10-23 15:29:00
11:49 AM,42.8,37.4,81,29.81,7.0,Calm,Calm,-,N/A,,Overcast,0,2013-10-23 15:49:00
12:09 PM,44.6,37.4,76,29.81,7.0,Calm,Calm,-,N/A,,Overcast,0,2013-10-23 16:09:00
12:29 PM,44.6,37.4,76,29.80,10.0,SSE,3.5,-,N/A,,Overcast,160,2013-10-23 16:29:00
12:49 PM,44.6,37.4,76,29.79,10.0,SW,3.5,-,N/A,,Scattered Clouds,220,2013-10-23 16:49:00
1:09 PM,44.6,37.4,76,29.78,10.0,Calm,Calm,-,N/A,,Mostly Cloudy,0,2013-10-23 17:09:00
1:29 PM,44.6,37.4,76,29.77,10.0,SSE,3.5,-,N/A,,Overcast,160,2013-10-23 17:29:00
1:49 PM,44.6,37.4,76,29.77,10.0,Calm,Calm,-,N/A,,Overcast,0,2013-10-23 17:49:00
2:09 PM,44.6,37.4,76,29.77,10.0,South,3.5,-,N/A,,Overcast,190,2013-10-23 18:09:00
2:29 PM,44.6,39.2,81,29.77,10.0,Calm,Calm,-,N/A,,Mostly Cloudy,0,2013-10-23 18:29:00
2:49 PM,46.4,37.4,71,29.77,10.0,Calm,Calm,-,N/A,,Mostly Cloudy,0,2013-10-23 18:49:00
3:10 PM,46.4,39.2,76,29.77,10.0,Calm,Calm,-,N/A,,Mostly Cloudy,0,2013-10-23 19:10:00
3:30 PM,46.4,39.2,76,29.78,10.0,Calm,Calm,-,N/A,,Mostly Cloudy,0,2013-10-23 19:30:00
3:50 PM,46.4,39.2,76,29.79,10.0,Calm,Calm,-,N/A,,Overcast,0,2013-10-23 19:50:00
4:10 PM,46.4,41.0,81,29.80,10.0,Calm,Calm,-,N/A,,Overcast,0,2013-10-23 20:10:00
4:30 PM,46.4,41.0,81,29.80,10.0,Calm,Calm,-,N/A,,Mostly Cloudy,0,2013-10-23 20:30:00
4:50 PM,46.4,37.4,71,29.81,10.0,NNW,8.1,-,N/A,,Mostly Cloudy,330,2013-10-23 20:50:00
5:10 PM,46.4,35.6,66,29.82,10.0,NW,8.1,-,N/A,,Mostly Cloudy,320,2013-10-23 21:10:00
5:30 PM,46.4,35.6,66,29.82,10.0,WNW,4.6,-,N/A,,Scattered Clouds,290,2013-10-23 21:30:00
5:50 PM,46.4,35.6,66,29.83,10.0,WNW,4.6,-,N/A,,Scattered Clouds,300,2013-10-23 21:50:00
6:10 PM,46.4,35.6,66,29.84,10.0,WNW,10.4,16.1,N/A,,Scattered Clouds,300,2013-10-23 22:10:00
6:30 PM,44.6,35.6,71,29.86,10.0,WNW,11.5,19.6,N/A,,Scattered Clouds,300,2013-10-23 22:30:00
6:50 PM,44.6,33.8,66,29.87,10.0,WNW,9.2,-,N/A,,Mostly Cloudy,300,2013-10-23 22:50:00
7:10 PM,44.6,33.8,66,29.88,10.0,West,6.9,-,N/A,,Mostly Cloudy,280,2013-10-23 23:10:00
7:30 PM,44.6,35.6,71,29.89,10.0,WNW,11.5,18.4,N/A,,Mostly Cloudy,300,2013-10-23 23:30:00
7:50 PM,44.6,35.6,71,29.90,10.0,NNW,3.5,-,N/A,,Mostly Cloudy,340,2013-10-23 23:50:00
8:10 PM,44.6,33.8,66,29.91,10.0,WNW,11.5,-,N/A,,Scattered Clouds,300,2013-10-24 00:10:00
8:30 PM,44.6,32.0,61,29.92,10.0,NNW,12.7,17.3,N/A,,Scattered Clouds,330,2013-10-24 00:30:00
8:50 PM,42.8,32.0,66,29.92,10.0,NW,10.4,-,N/A,,Scattered Clouds,310,2013-10-24 00:50:00
9:10 PM,42.8,33.8,70,29.93,10.0,WNW,9.2,17.3,N/A,,Scattered Clouds,300,2013-10-24 01:10:00
9:30 PM,42.8,33.8,70,29.94,10.0,NW,6.9,-,N/A,,Scattered Clouds,310,2013-10-24 01:30:00
9:50 PM,42.8,33.8,70,29.94,10.0,WNW,5.8,17.3,N/A,,Mostly Cloudy,300,2013-10-24 01:50:00
10:10 PM,42.8,33.8,70,29.95,10.0,West,8.1,17.3,N/A,,Scattered Clouds,280,2013-10-24 02:10:00
10:30 PM,42.8,33.8,70,29.95,10.0,West,8.1,-,N/A,,Scattered Clouds,280,2013-10-24 02:30:00
10:50 PM,42.8,32.0,66,29.96,10.0,West,8.1,-,N/A,,Scattered Clouds,280,2013-10-24 02:50:00
11:10 PM,42.8,32.0,66,29.97,10.0,West,6.9,-,N/A,,Scattered Clouds,280,2013-10-24 03:10:00
11:30 PM,42.8,32.0,66,29.97,10.0,West,9.2,-,N/A,,Clear,270,2013-10-24 03:30:00
11:50 PM,42.8,32.0,66,29.97,10.0,West,5.8,-,N/A,,Clear,260,2013-10-24 03:50:00